ピゴット-リニア-コワルスキー彗星

226P/Pigott-LINEAR-Kowalski (2003)

English version
Home page
Updated on September 13, 2009

---------------------------------------------------------------------

・ プロフィール

符号 226P/2003 A1
再発見日 2003年1月5日
再発見光度 18.4等
再発見者 Lincoln Laboratory Near-Earth Asteroid Research project

・ 軌道要素

Epoch 2003 Feb. 10.0 TT = JDT 2452680.5
T 2003 Feb. 1.25508 TT                                  MPC
q   1.9157137            (2000.0)            P               Q
n   0.13907171     Peri.  357.08440     +0.59893561     -0.53790383
a   3.6895794      Node    55.19398     +0.74856136     +0.11289234
e   0.4807772      Incl.   46.26174     +0.28448556     +0.83541294
P   7.09

・ 星図

・ 光度変化

        m1 = 6.5 + 5 logΔ + 30 log r(t - 75)

---------------------------------------------------------------------

軌道要素はM.P.E.C. 2009-R40に掲載されたものです。
星図は StellaNavigator Ver.2.0 for Windows (アストロアーツ編著 / アスキー出版局刊) で作成したものです。
光度グラフはComet for Windowsで作成したものです。

---------------------------------------------------------------------

Copyright(C) Seiichi Yoshida (comet@aerith.net). All rights reserved.